Location: Bogis-Bossey
(46.3500°N, 6.1667°E)
Time: 17:57:48
(UTC+00:00)

Cosmos 2278 Rocket - Pass Details

Date: 17 August 2022
Orbit: 841 x 845 km, 71.0° (Epoch: 01 October)

Event Time Altitude Azimuth Distance (km) Brightness Sun altitude
Exits shadow 20:12:54 15° 92° (E) 2,149 3.8 -14.6°
Drops below altitude 10° 20:15:26 10° 65° (ENE) 2,465 4.4 -14.9°
Sets 20:18:58 0° 43° (NE) 3,406 5.3 -15.4°
